Flag for U.S.A. Weather past 2 weeks in Duluth, Minnesota, U.S.A.

Now
37 °F

Clear.


Feels Like: 30 °F
Forecast: 30 / 51 °F
Wind: 12 mph from Northeast

Location: Sky Harbor Airport

Current Time: Apr 25, 2015 at 10:55:29 PM

Latest Report: Apr 25, 2015 at 10:13 PM


Visibility: 10 mi

Pressure: 30.06 "Hg

Humidity: 75%

Dew point: 30 °F

Location of DuluthLocation

Historic Weather in Duluth — Graph

°F

Duluth temperature yesterday

Maximum temperature yesterday: 37 °F (at 12:14 AM)
Minimum temperature yesterday: 36 °F (at 8:54 PM)
Average temperature yesterday: 37 °F

Past Weeks' High & Low Weather Summary

 TemperatureHumidityPressure
High75 °F (Apr 12, 2:53 PM)100% (Apr 12, 9:14 PM)30.28 "Hg (Apr 12, 9:14 PM)
Low30 °F (Apr 22, 7:14 AM)10% (Apr 14, 3:53 PM)29.38 "Hg (Apr 20, 11:13 PM)
Average44 °F65%29.91 "Hg
* Reported Apr 10 9:14 PM — Apr 25 9:33 PM, Duluth, Weather by CustomWeather, © 2015

Note: Actual official high and low records may vary slightly from our data, if they occured in-between our weather recording intervals... More about our weather records

Advertising

Duluth weather history for previous 24 hours

 ConditionsComfort  
Time TempWeatherWind HumidityBarometerVisibility
9:33 PM
Sat, Apr 25
37 °FClear.15 mph70%30.06 "Hg10 mi
9:13 PM37 °FClear.16 mph70%30.05 "Hg10 mi
8:53 PM37 °FSunny.18 mph70%30.05 "Hg10 mi
8:34 PM37 °FSunny.18 mph70%30.04 "Hg10 mi
8:13 PM37 °FSunny.18 mph70%30.04 "Hg10 mi
7:54 PM37 °FSunny.21 mph70%30.03 "Hg10 mi
7:33 PM37 °FSunny.18 mph75%30.03 "Hg10 mi
7:13 PM37 °FSunny.17 mph75%30.02 "Hg10 mi
6:53 PM37 °FSunny.17 mph75%30.02 "Hg10 mi
6:33 PM37 °FSunny.16 mph75%30.03 "Hg10 mi
6:13 PM39 °FSunny.14 mph70%30.02 "Hg10 mi
5:54 PM39 °FSunny.14 mph70%30.02 "Hg10 mi
5:33 PM39 °FSunny.17 mph70%30.01 "Hg10 mi
5:13 PM39 °FSunny.18 mph70%30.01 "Hg10 mi
4:13 PM39 °FSunny.18 mph70%30.01 "Hg10 mi
3:54 PM39 °FSunny.20 mph70%30.00 "Hg10 mi
3:33 PM39 °FSunny.23 mph70%30.00 "Hg10 mi
3:13 PM39 °FSunny.23 mph70%30.00 "Hg10 mi
2:54 PM39 °FSunny.20 mph70%30.00 "Hg10 mi
2:33 PM39 °FSunny.21 mph75%30.00 "Hg10 mi
2:13 PM39 °FSunny.24 mph75%30.00 "Hg10 mi
1:53 PM37 °FSunny.24 mph81%30.00 "Hg10 mi
1:34 PM37 °FSunny.25 mph81%30.00 "Hg10 mi
1:13 PM37 °FSunny.26 mph81%30.00 "Hg10 mi
12:53 PM37 °FSunny.23 mph81%30.00 "Hg10 mi
12:34 PM37 °FScattered clouds.21 mph81%30.00 "Hg10 mi
12:13 PM37 °FPartly sunny.20 mph81%30.01 "Hg10 mi
11:53 AM37 °FPartly sunny.20 mph81%30.01 "Hg10 mi
11:34 AM37 °FPartly sunny.18 mph81%30.01 "Hg10 mi
11:13 AM37 °FOvercast.22 mph81%30.01 "Hg10 mi
10:53 AM37 °FOvercast.23 mph81%30.01 "Hg10 mi
10:33 AM37 °FOvercast.23 mph81%30.00 "Hg10 mi
10:13 AM37 °FOvercast.24 mph81%30.00 "Hg10 mi
9:54 AM37 °FPartly sunny.24 mph81%30.00 "Hg10 mi
9:34 AM37 °FOvercast.25 mph81%29.99 "Hg10 mi
9:13 AM36 °FOvercast.26 mph81%29.99 "Hg10 mi
8:53 AM36 °FOvercast.29 mph81%29.99 "Hg10 mi
8:34 AM36 °FOvercast.26 mph81%29.98 "Hg10 mi
8:13 AM36 °FOvercast.26 mph87%29.97 "Hg10 mi
7:54 AM36 °FOvercast.28 mph81%29.97 "Hg10 mi
7:33 AM36 °FOvercast.24 mph87%29.97 "Hg10 mi
7:13 AM36 °FOvercast.24 mph87%29.97 "Hg10 mi
6:54 AM36 °FOvercast.26 mph87%29.97 "Hg10 mi
6:33 AM36 °FOvercast.28 mph81%29.97 "Hg10 mi
6:13 AM36 °FOvercast.24 mph87%29.97 "Hg10 mi
5:54 AM36 °FMostly cloudy.23 mph87%29.97 "Hg10 mi
5:33 AM36 °FMostly cloudy.22 mph87%29.96 "Hg10 mi
5:13 AM36 °FOvercast.24 mph87%29.96 "Hg10 mi
4:53 AM36 °FOvercast.25 mph87%29.96 "Hg10 mi
4:33 AM36 °FOvercast.24 mph87%29.95 "Hg10 mi
4:13 AM36 °FOvercast.20 mph87%29.95 "Hg10 mi
3:53 AM36 °FOvercast.23 mph87%29.94 "Hg10 mi
3:34 AM36 °FOvercast.20 mph87%29.94 "Hg10 mi
3:13 AM36 °FOvercast.21 mph87%29.94 "Hg10 mi
2:54 AM36 °FOvercast.20 mph87%29.94 "Hg10 mi
2:33 AM36 °FOvercast.20 mph87%29.94 "Hg10 mi
2:13 AM36 °FOvercast.21 mph93%29.94 "Hg10 mi
1:54 AM36 °FOvercast.20 mph87%29.94 "Hg10 mi
1:33 AM36 °FOvercast.20 mph87%29.94 "Hg10 mi
1:13 AM36 °FOvercast.18 mph87%29.94 "Hg10 mi
12:54 AM36 °FOvercast.18 mph87%29.95 "Hg10 mi
12:33 AM36 °FOvercast.21 mph87%29.95 "Hg10 mi
12:14 AM36 °FOvercast.20 mph87%29.95 "Hg10 mi
11:53 PM
Fri, Apr 24
36 °FOvercast.18 mph87%29.96 "Hg10 mi
11:33 PM36 °FOvercast.20 mph87%29.95 "Hg10 mi
11:14 PM36 °FOvercast.20 mph87%29.95 "Hg10 mi
10:33 PM36 °FOvercast.21 mph87%29.96 "Hg10 mi
10:13 PM36 °FOvercast.20 mph87%29.96 "Hg10 mi
Weather by CustomWeather, © 2015

See weather overviewHow to use our weather pages